Time,TemperatureF,DewpointF,PressureIn,WindDirection,WindDirectionDegrees,WindSpeedMPH,WindSpeedGustMPH,Humidity,HourlyPrecipIn,Conditions,Clouds,dailyrainin,SoftwareType,DateUTC
2013-03-27 00:00:00,38.7,27.1,30.12,NW,315,4.0,5.4,63,0.00,,,0.00,WUHU21523XXSP,2013-03-27 04:00:00,
2013-03-27 00:05:00,38.7,27.1,30.12,NNW,330,4.3,5.8,63,0.00,,,0.00,WUHU21523XXSP,2013-03-27 04:05:00,
2013-03-27 00:10:00,38.5,26.9,30.12,NNW,337,0.9,5.8,63,0.00,,,0.00,WUHU21523XXSP,2013-03-27 04:10:00,
2013-03-27 00:15:00,38.5,26.9,30.12,NW,315,3.6,3.6,63,0.00,,,0.00,WUHU21523XXSP,2013-03-27 04:15:00,
2013-03-27 00:20:00,38.5,26.9,30.12,NW,315,3.6,3.6,63,0.00,,,0.00,WUHU21523XXSP,2013-03-27 04:20:00,
2013-03-27 00:25:00,38.3,26.7,30.12,NNW,337,4.7,4.7,63,0.00,,,0.00,WUHU21523XXSP,2013-03-27 04:25:00,
2013-03-27 00:30:00,38.3,26.4,30.12,NW,315,2.2,4.7,62,0.00,,,0.00,WUHU21523XXSP,2013-03-27 04:30:00,
2013-03-27 00:35:00,38.3,26.4,30.12,NNW,337,0.7,4.7,62,0.00,,,0.00,WUHU21523XXSP,2013-03-27 04:35:00,
2013-03-27 00:40:00,38.3,26.4,30.12,NW,315,0.0,3.4,62,0.00,,,0.00,WUHU21523XXSP,2013-03-27 04:40:00,
2013-03-27 00:45:00,38.1,26.2,30.12,WNW,292,3.1,3.4,62,0.00,,,0.00,WUHU21523XXSP,2013-03-27 04:45:00,
2013-03-27 00:50:00,38.1,26.2,30.13,NNW,337,1.8,3.1,62,0.00,,,0.00,WUHU21523XXSP,2013-03-27 04:50:00,
2013-03-27 00:55:00,37.9,26.0,30.12,NNE,22,2.7,2.7,62,0.00,,,0.00,WUHU21523XXSP,2013-03-27 04:55:00,
2013-03-27 01:00:00,37.9,26.0,30.13,NNW,329,2.3,2.9,62,0.00,,,0.00,WUHU21523XXSP,2013-03-27 05:00:00,
2013-03-27 01:05:00,37.9,26.0,30.12,NW,315,5.6,5.6,62,0.00,,,0.00,WUHU21523XXSP,2013-03-27 05:05:00,
2013-03-27 01:10:00,38.1,25.8,30.13,NNW,337,0.0,5.6,61,0.00,,,0.00,WUHU21523XXSP,2013-03-27 05:10:00,
2013-03-27 01:15:00,38.1,25.8,30.13,NNW,334,2.2,3.8,61,0.00,,,0.00,WUHU21523XXSP,2013-03-27 05:15:00,
2013-03-27 01:20:00,38.1,25.8,30.12,North,350,2.1,3.8,61,0.00,,,0.00,WUHU21523XXSP,2013-03-27 05:20:00,
2013-03-27 01:25:00,37.9,25.7,30.13,NNW,337,1.8,3.1,61,0.00,,,0.00,WUHU21523XXSP,2013-03-27 05:25:00,
2013-03-27 01:30:00,37.9,25.7,30.13,NNW,337,0.7,1.8,61,0.00,,,0.00,WUHU21523XXSP,2013-03-27 05:30:00,
2013-03-27 01:35:00,37.9,26.0,30.13,NW,325,1.2,1.8,62,0.00,,,0.00,WUHU21523XXSP,2013-03-27 05:35:00,
2013-03-27 01:40:00,37.9,26.0,30.13,North,0,1.1,2.5,62,0.00,,,0.00,WUHU21523XXSP,2013-03-27 05:40:00,
2013-03-27 01:45:00,37.9,26.0,30.13,NNW,337,0.9,2.5,62,0.00,,,0.00,WUHU21523XXSP,2013-03-27 05:45:00,
2013-03-27 01:50:00,37.9,26.0,30.13,NNW,337,2.9,2.9,62,0.00,,,0.00,WUHU21523XXSP,2013-03-27 05:50:00,
2013-03-27 01:55:00,37.8,25.9,30.13,NNW,337,2.0,2.9,62,0.00,,,0.00,WUHU21523XXSP,2013-03-27 05:55:00,
2013-03-27 02:00:00,37.8,25.9,30.13,NE,37,3.2,6.3,62,0.00,,,0.00,WUHU21523XXSP,2013-03-27 06:00:00,
2013-03-27 02:05:00,37.9,26.0,30.14,NW,315,2.3,6.3,62,0.00,,,0.00,WUHU21523XXSP,2013-03-27 06:05:00,
2013-03-27 02:10:00,37.9,26.4,30.14,NW,315,2.0,3.8,63,0.00,,,0.00,WUHU21523XXSP,2013-03-27 06:10:00,
2013-03-27 02:15:00,37.9,26.8,30.13,NNW,337,3.4,3.8,64,0.00,,,0.00,WUHU21523XXSP,2013-03-27 06:15:00,
2013-03-27 02:20:00,37.8,26.6,30.13,NNW,337,0.0,3.4,64,0.00,,,0.00,WUHU21523XXSP,2013-03-27 06:20:00,
2013-03-27 02:25:00,37.6,26.5,30.13,NW,315,1.1,1.1,64,0.00,,,0.00,WUHU21523XXSP,2013-03-27 06:25:00,
2013-03-27 02:30:00,37.6,26.5,30.13,WNW,284,2.3,3.4,64,0.00,,,0.00,WUHU21523XXSP,2013-03-27 06:30:00,
2013-03-27 02:35:00,37.6,26.5,30.13,NNE,22,1.8,3.4,64,0.00,,,0.00,WUHU21523XXSP,2013-03-27 06:35:00,
2013-03-27 02:40:00,37.6,26.5,30.13,NNW,337,3.1,4.7,64,0.00,,,0.00,WUHU21523XXSP,2013-03-27 06:40:00,
2013-03-27 02:45:00,37.6,26.1,30.13,NW,315,2.2,4.7,63,0.00,,,0.00,WUHU21523XXSP,2013-03-27 06:45:00,
2013-03-27 02:50:00,37.6,26.5,30.13,NNW,337,0.0,2.2,64,0.00,,,0.00,WUHU21523XXSP,2013-03-27 06:50:00,
2013-03-27 02:55:00,37.4,26.3,30.13,NNW,337,2.0,2.0,64,0.00,,,0.00,WUHU21523XXSP,2013-03-27 06:55:00,
2013-03-27 03:00:00,37.2,26.1,30.13,NW,321,3.7,5.6,64,0.00,,,0.00,WUHU21523XXSP,2013-03-27 07:00:00,
2013-03-27 03:05:00,37.2,25.8,30.12,NNW,330,1.9,5.6,63,0.00,,,0.00,WUHU21523XXSP,2013-03-27 07:05:00,
2013-03-27 03:10:00,37.4,25.9,30.12,NW,322,4.1,5.8,63,0.00,,,0.00,WUHU21523XXSP,2013-03-27 07:10:00,
2013-03-27 03:15:00,37.4,25.9,30.12,NNW,337,1.3,5.8,63,0.00,,,0.00,WUHU21523XXSP,2013-03-27 07:15:00,
2013-03-27 03:20:00,37.4,25.9,30.12,North,0,3.4,3.4,63,0.00,,,0.00,WUHU21523XXSP,2013-03-27 07:20:00,
2013-03-27 03:25:00,37.4,25.9,30.12,NNW,338,4.0,4.3,63,0.00,,,0.00,WUHU21523XXSP,2013-03-27 07:25:00,
2013-03-27 03:30:00,37.2,26.1,30.12,NW,315,1.8,4.3,64,0.00,,,0.00,WUHU21523XXSP,2013-03-27 07:30:00,
2013-03-27 03:35:00,37.2,26.1,30.12,NW,315,1.1,2.7,64,0.00,,,0.00,WUHU21523XXSP,2013-03-27 07:35:00,
2013-03-27 03:40:00,37.2,26.5,30.12,NW,315,2.0,2.7,65,0.00,,,0.00,WUHU21523XXSP,2013-03-27 07:40:00,
2013-03-27 03:45:00,37.2,26.5,30.12,NNW,337,0.7,2.7,65,0.00,,,0.00,WUHU21523XXSP,2013-03-27 07:45:00,
2013-03-27 03:50:00,37.0,26.3,30.13,NNW,337,0.7,1.1,65,0.00,,,0.00,WUHU21523XXSP,2013-03-27 07:50:00,
2013-03-27 03:55:00,36.9,26.2,30.13,NNW,337,2.5,2.5,65,0.00,,,0.00,WUHU21523XXSP,2013-03-27 07:55:00,
2013-03-27 04:00:00,36.9,26.5,30.13,NW,315,1.1,2.5,66,0.00,,,0.00,WUHU21523XXSP,2013-03-27 08:00:00,
2013-03-27 04:05:00,36.7,26.4,30.13,NW,315,0.0,1.1,66,0.00,,,0.00,WUHU21523XXSP,2013-03-27 08:05:00,
2013-03-27 04:10:00,36.5,26.2,30.13,NW,315,0.0,1.1,66,0.00,,,0.00,WUHU21523XXSP,2013-03-27 08:10:00,
2013-03-27 04:15:00,36.3,26.0,30.13,North,0,2.0,2.0,66,0.00,,,0.00,WUHU21523XXSP,2013-03-27 08:15:00,
2013-03-27 04:20:00,36.3,26.0,30.13,NW,315,0.0,2.0,66,0.00,,,0.00,WUHU21523XXSP,2013-03-27 08:20:00,
2013-03-27 04:25:00,36.3,26.0,30.13,NW,315,0.0,0.0,66,0.00,,,0.00,WUHU21523XXSP,2013-03-27 08:25:00,
2013-03-27 04:30:00,36.3,26.0,30.13,NW,315,0.0,0.0,66,0.00,,,0.00,WUHU21523XXSP,2013-03-27 08:30:00,
2013-03-27 04:35:00,36.1,25.8,30.13,NW,315,1.1,1.1,66,0.00,,,0.00,WUHU21523XXSP,2013-03-27 08:35:00,
2013-03-27 04:40:00,36.1,25.8,30.13,WNW,292,0.0,1.1,66,0.00,,,0.00,WUHU21523XXSP,2013-03-27 08:40:00,
2013-03-27 04:45:00,36.1,25.8,30.13,NW,315,0.0,1.1,66,0.00,,,0.00,WUHU21523XXSP,2013-03-27 08:45:00,
2013-03-27 04:50:00,36.1,25.8,30.13,WNW,292,1.3,1.3,66,0.00,,,0.00,WUHU21523XXSP,2013-03-27 08:50:00,
2013-03-27 04:55:00,36.1,25.5,30.13,NW,315,0.0,1.3,65,0.00,,,0.00,WUHU21523XXSP,2013-03-27 08:55:00,
2013-03-27 05:00:00,36.1,25.5,30.14,NW,315,0.0,0.0,65,0.00,,,0.00,WUHU21523XXSP,2013-03-27 09:00:00,
2013-03-27 05:05:00,36.3,25.7,30.13,NNW,337,1.8,1.8,65,0.00,,,0.00,WUHU21523XXSP,2013-03-27 09:05:00,
2013-03-27 05:10:00,36.3,26.0,30.13,NW,315,0.4,1.8,66,0.00,,,0.00,WUHU21523XXSP,2013-03-27 09:10:00,
2013-03-27 05:15:00,36.3,26.0,30.13,NW,315,3.4,3.4,66,0.00,,,0.00,WUHU21523XXSP,2013-03-27 09:15:00,
2013-03-27 05:20:00,36.3,26.4,30.14,NNW,333,1.9,5.4,67,0.00,,,0.00,WUHU21523XXSP,2013-03-27 09:20:00,
2013-03-27 05:25:00,36.1,26.2,30.14,NW,315,0.0,5.4,67,0.00,,,0.00,WUHU21523XXSP,2013-03-27 09:25:00,
2013-03-27 05:35:00,36.0,26.4,30.14,NNW,337,0.4,3.1,68,0.00,,,0.00,WUHU21523XXSP,2013-03-27 09:35:00,
2013-03-27 05:40:00,36.0,26.4,30.14,NW,315,0.0,0.4,68,0.00,,,0.00,WUHU21523XXSP,2013-03-27 09:40:00,
2013-03-27 05:45:00,35.8,26.2,30.14,NNW,347,1.7,2.5,68,0.00,,,0.00,WUHU21523XXSP,2013-03-27 09:45:00,
2013-03-27 05:50:00,35.8,26.2,30.14,North,0,0.0,2.5,68,0.00,,,0.00,WUHU21523XXSP,2013-03-27 09:50:00,
2013-03-27 05:55:00,35.8,26.2,30.14,NW,315,0.0,0.0,68,0.00,,,0.00,WUHU21523XXSP,2013-03-27 09:55:00,
2013-03-27 06:00:00,35.8,25.9,30.14,NNW,337,0.0,0.0,67,0.00,,,0.00,WUHU21523XXSP,2013-03-27 10:00:00,
2013-03-27 06:10:00,35.6,25.0,30.14,NW,315,3.6,3.6,65,0.00,,,0.00,WUHU21523XXSP,2013-03-27 10:10:00,
2013-03-27 06:15:00,35.8,25.1,30.15,NNW,337,0.0,3.6,65,0.00,,,0.00,WUHU21523XXSP,2013-03-27 10:15:00,
2013-03-27 06:20:00,35.8,24.8,30.15,NW,315,0.0,0.0,64,0.00,,,0.00,WUHU21523XXSP,2013-03-27 10:20:00,
2013-03-27 06:25:00,35.8,24.8,30.15,NW,315,0.9,0.9,63,0.00,,,0.00,WUHU21523XXSP,2013-03-27 10:25:00,
2013-03-27 06:30:00,35.8,24.4,30.15,NW,325,2.2,2.5,63,0.00,,,0.00,WUHU21523XXSP,2013-03-27 10:30:00,
2013-03-27 06:35:00,35.8,24.1,30.15,NNW,337,3.1,3.1,62,0.00,,,0.00,WUHU21523XXSP,2013-03-27 10:35:00,
2013-03-27 06:40:00,35.8,24.1,30.15,NNW,337,3.0,4.3,62,0.00,,,0.00,WUHU21523XXSP,2013-03-27 10:40:00,
2013-03-27 06:45:00,35.8,24.1,30.15,NW,315,5.1,5.1,62,0.00,,,0.00,WUHU21523XXSP,2013-03-27 10:45:00,
2013-03-27 06:55:00,35.8,23.7,30.15,NNW,347,3.6,5.4,61,0.00,,,0.00,WUHU21523XXSP,2013-03-27 10:55:00,
2013-03-27 07:00:00,35.8,23.7,30.15,NW,315,2.0,5.4,61,0.00,,,0.00,WUHU21523XXSP,2013-03-27 11:00:00,
2013-03-27 07:10:00,35.8,24.1,30.15,NW,315,1.3,2.0,62,0.00,,,0.00,WUHU21523XXSP,2013-03-27 11:10:00,
2013-03-27 07:15:00,35.8,24.1,30.16,NW,315,1.6,2.0,62,0.00,,,0.00,WUHU21523XXSP,2013-03-27 11:15:00,
2013-03-27 07:25:00,36.0,23.9,30.17,NW,315,2.0,2.2,61,0.00,,,0.00,WUHU21523XXSP,2013-03-27 11:25:00,
2013-03-27 07:30:00,36.0,23.9,30.16,NNW,337,4.5,5.1,61,0.00,,,0.00,WUHU21523XXSP,2013-03-27 11:30:00,
2013-03-27 07:40:00,36.0,23.9,30.17,NE,38,3.5,6.9,61,0.00,,,0.00,WUHU21523XXSP,2013-03-27 11:40:00,
2013-03-27 07:45:00,36.1,24.0,30.17,NNW,337,4.4,6.9,61,0.00,,,0.00,WUHU21523XXSP,2013-03-27 11:45:00,
2013-03-27 07:50:00,36.1,24.0,30.17,WNW,292,0.0,5.1,61,0.00,,,0.00,WUHU21523XXSP,2013-03-27 11:50:00,
2013-03-27 07:55:00,36.3,24.2,30.17,NW,315,4.7,4.7,61,0.00,,,0.00,WUHU21523XXSP,2013-03-27 11:55:00,
2013-03-27 08:00:00,36.3,24.2,30.17,NW,315,4.9,4.9,61,0.00,,,0.00,WUHU21523XXSP,2013-03-27 12:00:00,
2013-03-27 08:05:00,36.3,24.2,30.17,North,0,0.4,4.9,61,0.00,,,0.00,WUHU21523XXSP,2013-03-27 12:05:00,
2013-03-27 08:15:00,36.3,24.2,30.17,NW,315,4.9,4.9,61,0.00,,,0.00,WUHU21523XXSP,2013-03-27 12:15:00,
2013-03-27 08:20:00,36.3,24.2,30.17,NNW,333,3.5,5.8,61,0.00,,,0.00,WUHU21523XXSP,2013-03-27 12:20:00,
2013-03-27 08:25:00,36.3,24.2,30.17,NW,315,5.6,5.8,61,0.00,,,0.00,WUHU21523XXSP,2013-03-27 12:25:00,
2013-03-27 08:30:00,36.3,24.2,30.17,NW,315,1.6,5.8,61,0.00,,,0.00,WUHU21523XXSP,2013-03-27 12:30:00,
2013-03-27 08:35:00,36.5,24.4,30.17,North,3,4.1,5.4,61,0.00,,,0.00,WUHU21523XXSP,2013-03-27 12:35:00,
2013-03-27 08:40:00,36.3,24.2,30.18,NNW,337,1.5,5.4,61,0.00,,,0.00,WUHU21523XXSP,2013-03-27 12:40:00,
2013-03-27 08:45:00,36.5,24.4,30.18,NW,315,1.4,5.1,61,0.00,,,0.00,WUHU21523XXSP,2013-03-27 12:45:00,
2013-03-27 08:50:00,36.7,24.4,30.18,NNW,337,1.3,1.6,61,0.00,,,0.00,WUHU21523XXSP,2013-03-27 12:50:00,
2013-03-27 08:55:00,36.7,24.5,30.19,NNW,336,2.5,2.9,61,0.00,,,0.00,WUHU21523XXSP,2013-03-27 12:55:00,
2013-03-27 09:00:00,36.7,24.5,30.19,NW,315,0.9,2.9,60,0.00,,,0.00,WUHU21523XXSP,2013-03-27 13:00:00,
2013-03-27 09:05:00,36.7,24.2,30.19,North,349,6.4,7.8,60,0.00,,,0.00,WUHU21523XXSP,2013-03-27 13:05:00,
2013-03-27 09:10:00,36.9,23.9,30.19,NW,307,5.8,7.8,59,0.00,,,0.00,WUHU21523XXSP,2013-03-27 13:10:00,
2013-03-27 09:15:00,36.9,23.9,30.20,NNW,345,2.6,7.6,59,0.00,,,0.00,WUHU21523XXSP,2013-03-27 13:15:00,
2013-03-27 09:20:00,37.0,24.5,30.20,WSW,252,3.3,6.0,60,0.00,,,0.00,WUHU21523XXSP,2013-03-27 13:20:00,
2013-03-27 09:25:00,37.0,24.0,30.20,NW,315,4.3,6.5,59,0.00,,,0.00,WUHU21523XXSP,2013-03-27 13:25:00,
2013-03-27 09:30:00,37.2,24.2,30.20,North,350,6.2,7.6,59,0.00,,,0.00,WUHU21523XXSP,2013-03-27 13:30:00,
2013-03-27 09:35:00,37.2,24.2,30.20,NW,315,2.7,9.8,59,0.00,,,0.00,WUHU21523XXSP,2013-03-27 13:35:00,
2013-03-27 09:40:00,37.2,24.2,30.21,NW,315,4.4,9.8,59,0.00,,,0.00,WUHU21523XXSP,2013-03-27 13:40:00,
2013-03-27 09:45:00,37.6,24.1,30.21,North,9,2.3,5.4,58,0.00,,,0.00,WUHU21523XXSP,2013-03-27 13:45:00,
2013-03-27 09:50:00,37.6,24.1,30.21,NNW,337,4.9,7.8,58,0.00,,,0.00,WUHU21523XXSP,2013-03-27 13:50:00,
2013-03-27 09:55:00,37.6,24.1,30.21,WNW,294,2.5,7.8,58,0.00,,,0.00,WUHU21523XXSP,2013-03-27 13:55:00,
2013-03-27 10:00:00,37.8,24.3,30.21,NW,323,3.7,4.9,58,0.00,,,0.00,WUHU21523XXSP,2013-03-27 14:00:00,
2013-03-27 10:05:00,37.9,24.4,30.21,NNW,332,1.9,5.6,58,0.00,,,0.00,WUHU21523XXSP,2013-03-27 14:05:00,
2013-03-27 10:10:00,37.9,24.0,30.21,West,270,4.9,7.6,57,0.00,,,0.00,WUHU21523XXSP,2013-03-27 14:10:00,
2013-03-27 10:15:00,38.1,24.6,30.21,NNE,16,4.7,7.6,58,0.00,,,0.00,WUHU21523XXSP,2013-03-27 14:15:00,
2013-03-27 10:20:00,38.5,24.5,30.20,North,350,2.9,6.3,57,0.00,,,0.00,WUHU21523XXSP,2013-03-27 14:20:00,
2013-03-27 10:25:00,38.8,24.4,30.20,WNW,301,4.9,6.0,56,0.00,,,0.00,WUHU21523XXSP,2013-03-27 14:25:00,
2013-03-27 10:30:00,38.8,24.4,30.20,NNW,337,4.6,6.0,56,0.00,,,0.00,WUHU21523XXSP,2013-03-27 14:30:00,
2013-03-27 10:35:00,39.0,24.5,30.20,NW,315,3.4,6.7,56,0.00,,,0.00,WUHU21523XXSP,2013-03-27 14:35:00,
2013-03-27 10:45:00,39.0,24.5,30.20,North,0,3.8,7.6,56,0.00,,,0.00,WUHU21523XXSP,2013-03-27 14:45:00,
2013-03-27 10:50:00,39.0,24.5,30.21,WNW,292,6.7,6.9,56,0.00,,,0.00,WUHU21523XXSP,2013-03-27 14:50:00,
2013-03-27 10:55:00,39.0,24.1,30.21,West,281,1.8,6.9,55,0.00,,,0.00,WUHU21523XXSP,2013-03-27 14:55:00,
2013-03-27 11:00:00,39.0,24.1,30.21,North,11,5.4,8.5,55,0.00,,,0.00,WUHU21523XXSP,2013-03-27 15:00:00,
2013-03-27 11:05:00,39.0,24.5,30.22,NNW,337,3.3,8.5,56,0.00,,,0.00,WUHU21523XXSP,2013-03-27 15:05:00,
2013-03-27 11:10:00,39.0,24.1,30.22,NNE,22,6.5,6.9,55,0.00,,,0.00,WUHU21523XXSP,2013-03-27 15:10:00,
2013-03-27 11:15:00,39.0,24.1,30.22,NW,315,2.7,6.5,55,0.00,,,0.00,WUHU21523XXSP,2013-03-27 15:15:00,
2013-03-27 11:20:00,38.8,24.4,30.22,North,3,5.7,9.2,56,0.00,,,0.00,WUHU21523XXSP,2013-03-27 15:20:00,
2013-03-27 11:25:00,38.8,24.4,30.22,NW,315,1.3,9.2,56,0.00,,,0.00,WUHU21523XXSP,2013-03-27 15:25:00,
2013-03-27 11:30:00,38.8,24.4,30.22,NNW,332,2.5,4.0,56,0.00,,,0.00,WUHU21523XXSP,2013-03-27 15:30:00,
2013-03-27 11:35:00,38.8,24.8,30.22,NNW,337,4.0,4.0,57,0.00,,,0.00,WUHU21523XXSP,2013-03-27 15:35:00,
2013-03-27 11:40:00,39.0,24.5,30.22,NW,315,4.5,4.5,56,0.00,,,0.00,WUHU21523XXSP,2013-03-27 15:40:00,
2013-03-27 11:45:00,39.4,24.4,30.22,NW,309,2.6,4.5,55,0.00,,,0.00,WUHU21523XXSP,2013-03-27 15:45:00,
2013-03-27 11:50:00,39.4,24.4,30.23,NNE,22,5.6,5.6,56,0.00,,,0.00,WUHU21523XXSP,2013-03-27 15:50:00,
2013-03-27 11:55:00,39.4,24.9,30.22,NNW,327,5.1,5.6,56,0.00,,,0.00,WUHU21523XXSP,2013-03-27 15:55:00,
2013-03-27 12:00:00,39.6,25.0,30.22,North,6,4.0,5.6,56,0.00,,,0.00,WUHU21523XXSP,2013-03-27 16:00:00,
2013-03-27 12:05:00,39.4,25.3,30.23,NNW,333,3.3,5.6,57,0.00,,,0.00,WUHU21523XXSP,2013-03-27 16:05:00,
2013-03-27 12:10:00,39.6,25.0,30.23,NW,315,3.8,7.4,56,0.00,,,0.00,WUHU21523XXSP,2013-03-27 16:10:00,
2013-03-27 12:15:00,39.6,25.9,30.23,NW,315,6.3,7.6,58,0.00,,,0.00,WUHU21523XXSP,2013-03-27 16:15:00,
2013-03-27 12:20:00,39.7,26.1,30.23,NNW,328,5.6,7.6,58,0.00,,,0.00,WUHU21523XXSP,2013-03-27 16:20:00,
2013-03-27 12:25:00,39.9,25.8,30.23,NW,315,4.9,6.7,57,0.00,,,0.00,WUHU21523XXSP,2013-03-27 16:25:00,
2013-03-27 12:30:00,39.7,26.1,30.24,North,359,4.3,6.5,58,0.00,,,0.00,WUHU21523XXSP,2013-03-27 16:30:00,
2013-03-27 12:35:00,39.9,26.3,30.23,NW,315,2.3,6.5,58,0.00,,,0.00,WUHU21523XXSP,2013-03-27 16:35:00,
2013-03-27 12:40:00,40.3,26.6,30.23,NW,323,4.4,6.5,58,0.00,,,0.00,WUHU21523XXSP,2013-03-27 16:40:00,
2013-03-27 12:45:00,40.5,25.9,30.23,North,352,2.9,6.3,56,0.00,,,0.00,WUHU21523XXSP,2013-03-27 16:45:00,
2013-03-27 12:50:00,40.8,26.2,30.23,NW,315,4.9,6.3,56,0.00,,,0.00,WUHU21523XXSP,2013-03-27 16:50:00,
2013-03-27 12:55:00,41.4,26.3,30.23,North,353,6.9,9.2,55,0.00,,,0.00,WUHU21523XXSP,2013-03-27 16:55:00,
2013-03-27 13:00:00,41.7,26.7,30.22,NNW,344,3.5,9.2,55,0.00,,,0.00,WUHU21523XXSP,2013-03-27 17:00:00,
2013-03-27 13:05:00,41.9,26.4,30.22,NW,324,2.4,8.3,54,0.00,,,0.00,WUHU21523XXSP,2013-03-27 17:05:00,
2013-03-27 13:10:00,41.9,26.4,30.22,WNW,302,6.4,7.4,54,0.00,,,0.00,WUHU21523XXSP,2013-03-27 17:10:00,
2013-03-27 13:16:00,41.4,26.3,30.23,NW,315,3.1,7.4,55,0.00,,,0.00,WUHU21523XXSP,2013-03-27 17:16:00,
2013-03-27 13:21:00,41.4,26.3,30.23,NW,315,3.8,6.3,55,0.00,,,0.00,WUHU21523XXSP,2013-03-27 17:21:00,
2013-03-27 13:26:00,41.4,26.3,30.23,NW,315,8.3,8.3,55,0.00,,,0.00,WUHU21523XXSP,2013-03-27 17:26:00,
2013-03-27 13:36:00,41.5,26.5,30.22,NW,326,2.4,4.7,55,0.00,,,0.00,WUHU21523XXSP,2013-03-27 17:36:00,
2013-03-27 13:41:00,41.5,26.0,30.22,NNW,329,5.8,7.4,54,0.00,,,0.00,WUHU21523XXSP,2013-03-27 17:41:00,
2013-03-27 13:46:00,41.7,27.1,30.23,WNW,303,3.3,7.4,56,0.00,,,0.00,WUHU21523XXSP,2013-03-27 17:46:00,
2013-03-27 13:56:00,42.3,25.8,30.22,NW,324,5.8,6.9,52,0.00,,,0.00,WUHU21523XXSP,2013-03-27 17:56:00,
2013-03-27 14:06:00,42.4,26.0,30.22,NW,316,3.9,7.8,52,0.00,,,0.00,WUHU21523XXSP,2013-03-27 18:06:00,
2013-03-27 14:16:00,42.3,27.2,30.23,NNW,337,6.3,6.7,55,0.00,,,0.00,WUHU21523XXSP,2013-03-27 18:16:00,
2013-03-27 14:21:00,42.1,27.0,30.23,NW,315,3.7,6.3,55,0.00,,,0.00,WUHU21523XXSP,2013-03-27 18:21:00,
2013-03-27 14:26:00,41.9,27.3,30.22,NW,315,5.8,6.3,56,0.00,,,0.00,WUHU21523XXSP,2013-03-27 18:26:00,
2013-03-27 14:36:00,42.4,26.9,30.22,NE,45,5.3,6.9,54,0.00,,,0.00,WUHU21523XXSP,2013-03-27 18:36:00,
2013-03-27 14:41:00,42.6,26.6,30.22,NNW,337,5.4,5.6,53,0.00,,,0.00,WUHU21523XXSP,2013-03-27 18:41:00,
2013-03-27 14:46:00,42.4,26.0,30.22,NW,325,5.8,6.5,52,0.00,,,0.00,WUHU21523XXSP,2013-03-27 18:46:00,
2013-03-27 14:51:00,42.4,26.0,30.22,NNW,337,5.1,6.5,52,0.00,,,0.00,WUHU21523XXSP,2013-03-27 18:51:00,
2013-03-27 15:01:00,42.1,25.7,30.22,NW,319,3.8,6.9,52,0.00,,,0.00,WUHU21523XXSP,2013-03-27 19:01:00,
2013-03-27 15:11:00,42.1,25.2,30.21,NNW,339,4.1,6.0,51,0.00,,,0.00,WUHU21523XXSP,2013-03-27 19:11:00,
2013-03-27 15:16:00,42.3,25.7,30.20,NW,315,4.0,6.0,51,0.00,,,0.00,WUHU21523XXSP,2013-03-27 19:16:00,
2013-03-27 15:21:00,42.4,25.6,30.20,North,10,1.0,4.0,51,0.00,,,0.00,WUHU21523XXSP,2013-03-27 19:21:00,
2013-03-27 15:26:00,42.4,26.0,30.20,NW,315,3.4,4.0,52,0.00,,,0.00,WUHU21523XXSP,2013-03-27 19:26:00,
2013-03-27 15:31:00,42.6,26.2,30.20,NW,315,0.0,3.4,52,0.00,,,0.00,WUHU21523XXSP,2013-03-27 19:31:00,
2013-03-27 15:41:00,43.0,26.1,30.20,WNW,296,1.4,1.8,51,0.00,,,0.00,WUHU21523XXSP,2013-03-27 19:41:00,
2013-03-27 15:46:00,42.6,25.3,30.20,NW,315,4.5,6.3,50,0.00,,,0.00,WUHU21523XXSP,2013-03-27 19:46:00,
2013-03-27 15:51:00,42.6,25.3,30.20,NW,315,8.1,8.1,50,0.00,,,0.00,WUHU21523XXSP,2013-03-27 19:51:00,
2013-03-27 15:56:00,42.4,25.6,30.20,NW,315,5.6,8.1,51,0.00,,,0.00,WUHU21523XXSP,2013-03-27 19:56:00,
2013-03-27 16:06:00,43.2,26.3,30.19,North,0,3.8,5.1,51,0.00,,,0.00,WUHU21523XXSP,2013-03-27 20:06:00,
2013-03-27 16:11:00,43.0,25.7,30.19,NW,322,3.0,5.1,50,0.00,,,0.00,WUHU21523XXSP,2013-03-27 20:11:00,
2013-03-27 16:16:00,43.0,25.7,30.19,NW,312,3.7,6.3,50,0.00,,,0.00,WUHU21523XXSP,2013-03-27 20:16:00,
2013-03-27 16:21:00,43.0,25.7,30.19,NNW,337,4.0,6.3,50,0.00,,,0.00,WUHU21523XXSP,2013-03-27 20:21:00,
2013-03-27 16:31:00,42.8,25.5,30.19,NW,315,3.7,7.4,50,0.00,,,0.00,WUHU21523XXSP,2013-03-27 20:31:00,
2013-03-27 16:36:00,42.6,25.3,30.19,NNW,332,2.2,7.4,50,0.00,,,0.00,WUHU21523XXSP,2013-03-27 20:36:00,
2013-03-27 16:41:00,42.6,25.3,30.19,NNW,348,2.0,3.8,50,0.00,,,0.00,WUHU21523XXSP,2013-03-27 20:41:00,
2013-03-27 16:46:00,42.6,25.3,30.19,North,0,6.9,6.9,50,0.00,,,0.00,WUHU21523XXSP,2013-03-27 20:46:00,
2013-03-27 16:56:00,42.6,25.3,30.19,North,0,0.0,6.0,50,0.00,,,0.00,WUHU21523XXSP,2013-03-27 20:56:00,
2013-03-27 17:01:00,42.6,25.3,30.19,NW,315,2.9,4.9,50,0.00,,,0.00,WUHU21523XXSP,2013-03-27 21:01:00,
2013-03-27 17:06:00,42.6,25.3,30.18,NNW,337,3.3,4.7,50,0.00,,,0.00,WUHU21523XXSP,2013-03-27 21:06:00,
2013-03-27 17:11:00,42.6,25.3,30.18,NNW,337,3.7,5.1,50,0.00,,,0.00,WUHU21523XXSP,2013-03-27 21:11:00,
2013-03-27 17:16:00,42.6,25.3,30.18,NNW,337,3.1,5.6,50,0.00,,,0.00,WUHU21523XXSP,2013-03-27 21:16:00,
2013-03-27 17:21:00,42.6,25.3,30.18,North,8,4.3,5.6,50,0.00,,,0.00,WUHU21523XXSP,2013-03-27 21:21:00,
2013-03-27 17:31:00,42.6,24.8,30.18,North,0,4.5,6.5,49,0.00,,,0.00,WUHU21523XXSP,2013-03-27 21:31:00,
2013-03-27 17:36:00,42.6,25.3,30.18,NNE,24,2.2,5.4,50,0.00,,,0.00,WUHU21523XXSP,2013-03-27 21:36:00,
2013-03-27 17:41:00,42.6,25.3,30.18,North,10,2.7,2.9,50,0.00,,,0.00,WUHU21523XXSP,2013-03-27 21:41:00,
2013-03-27 17:51:00,42.6,24.8,30.18,NNW,331,2.1,6.3,49,0.00,,,0.00,WUHU21523XXSP,2013-03-27 21:51:00,
2013-03-27 17:57:00,42.8,25.5,30.19,NW,325,2.2,2.9,50,0.00,,,0.00,WUHU21523XXSP,2013-03-27 21:57:00,
2013-03-27 18:06:00,43.0,25.1,30.19,WNW,302,3.0,4.5,49,0.00,,,0.00,WUHU21523XXSP,2013-03-27 22:06:00,
2013-03-27 18:11:00,43.0,25.7,30.19,NNW,337,0.4,4.5,50,0.00,,,0.00,WUHU21523XXSP,2013-03-27 22:11:00,
2013-03-27 18:21:00,42.6,25.3,30.19,NW,315,3.3,7.2,50,0.00,,,0.00,WUHU21523XXSP,2013-03-27 22:21:00,
2013-03-27 18:26:00,42.4,25.2,30.19,NNW,337,6.1,6.5,50,0.00,,,0.00,WUHU21523XXSP,2013-03-27 22:26:00,
2013-03-27 18:31:00,42.4,25.2,30.19,North,4,1.4,6.5,50,0.00,,,0.00,WUHU21523XXSP,2013-03-27 22:31:00,
2013-03-27 18:41:00,42.4,25.6,30.19,WNW,292,0.0,1.3,51,0.00,,,0.00,WUHU21523XXSP,2013-03-27 22:41:00,
2013-03-27 18:46:00,42.1,25.2,30.19,NW,315,3.6,3.6,51,0.00,,,0.00,WUHU21523XXSP,2013-03-27 22:46:00,
2013-03-27 18:57:00,42.1,25.2,30.19,NNW,337,4.9,5.8,51,0.00,,,0.00,WUHU21523XXSP,2013-03-27 22:57:00,
2013-03-27 19:06:00,42.1,25.7,30.20,NW,315,0.0,5.4,52,0.00,,,0.00,WUHU21523XXSP,2013-03-27 23:06:00,
2013-03-27 19:11:00,42.1,25.7,30.20,NW,315,2.9,3.8,52,0.00,,,0.00,WUHU21523XXSP,2013-03-27 23:11:00,
2013-03-27 19:17:00,42.1,25.7,30.20,NW,315,1.1,3.8,52,0.00,,,0.00,WUHU21523XXSP,2013-03-27 23:17:00,
2013-03-27 19:26:00,41.9,26.4,30.20,West,270,0.0,2.5,54,0.00,,,0.00,WUHU21523XXSP,2013-03-27 23:26:00,
2013-03-27 19:31:00,41.7,26.2,30.20,NW,315,0.2,0.2,54,0.00,,,0.00,WUHU21523XXSP,2013-03-27 23:31:00,
2013-03-27 19:41:00,41.5,26.5,30.21,NW,315,2.2,3.4,55,0.00,,,0.00,WUHU21523XXSP,2013-03-27 23:41:00,
2013-03-27 19:46:00,41.5,26.5,30.21,NNW,337,7.2,7.2,55,0.00,,,0.00,WUHU21523XXSP,2013-03-27 23:46:00,
2013-03-27 19:56:00,41.4,26.7,30.22,WNW,301,1.7,3.6,56,0.00,,,0.00,WUHU21523XXSP,2013-03-27 23:56:00,
2013-03-27 20:01:00,41.2,27.0,30.22,NW,315,1.0,3.1,57,0.00,,,0.00,WUHU21523XXSP,2013-03-28 00:01:00,
2013-03-27 20:07:00,40.8,27.1,30.22,NW,315,3.9,4.3,58,0.00,,,0.00,WUHU21523XXSP,2013-03-28 00:07:00,
2013-03-27 20:16:00,40.6,27.0,30.22,NW,315,1.1,3.8,58,0.00,,,0.00,WUHU21523XXSP,2013-03-28 00:16:00,
2013-03-27 20:26:00,40.3,27.1,30.22,NNW,337,0.0,1.3,59,0.00,,,0.00,WUHU21523XXSP,2013-03-28 00:26:00,
2013-03-27 20:36:00,39.9,26.7,30.22,NNW,337,0.0,0.0,59,0.00,,,0.00,WUHU21523XXSP,2013-03-28 00:36:00,
2013-03-27 20:41:00,39.9,26.7,30.22,NW,315,1.1,3.4,59,0.00,,,0.00,WUHU21523XXSP,2013-03-28 00:41:00,
2013-03-27 20:46:00,39.9,26.7,30.22,NW,315,1.8,3.4,59,0.00,,,0.00,WUHU21523XXSP,2013-03-28 00:46:00,
2013-03-27 20:56:00,39.7,26.5,30.22,NW,315,0.0,1.1,59,0.00,,,0.00,WUHU21523XXSP,2013-03-28 00:56:00,
2013-03-27 21:01:00,39.7,26.5,30.22,NW,308,2.6,3.6,59,0.00,,,0.00,WUHU21523XXSP,2013-03-28 01:01:00,
2013-03-27 21:06:00,39.7,26.5,30.22,NW,315,3.5,4.0,59,0.00,,,0.00,WUHU21523XXSP,2013-03-28 01:06:00,
2013-03-27 21:11:00,39.7,26.5,30.22,NNW,337,0.0,4.0,59,0.00,,,0.00,WUHU21523XXSP,2013-03-28 01:11:00,
2013-03-27 21:21:00,39.6,26.3,30.22,North,0,0.0,0.9,59,0.00,,,0.00,WUHU21523XXSP,2013-03-28 01:21:00,
2013-03-27 21:26:00,39.4,26.1,30.22,NNW,329,1.0,1.3,59,0.00,,,0.00,WUHU21523XXSP,2013-03-28 01:26:00,
2013-03-27 21:31:00,39.4,26.1,30.22,NNW,337,2.9,2.9,59,0.00,,,0.00,WUHU21523XXSP,2013-03-28 01:31:00,
2013-03-27 21:41:00,39.4,26.1,30.22,NW,315,3.3,5.4,59,0.00,,,0.00,WUHU21523XXSP,2013-03-28 01:41:00,
2013-03-27 21:46:00,39.4,25.7,30.23,WNW,292,1.8,5.4,58,0.00,,,0.00,WUHU21523XXSP,2013-03-28 01:46:00,
2013-03-27 21:56:00,39.4,25.7,30.23,NW,322,1.3,2.7,58,0.00,,,0.00,WUHU21523XXSP,2013-03-28 01:56:00,
2013-03-27 22:01:00,39.4,25.7,30.23,NNW,337,2.6,3.4,58,0.00,,,0.00,WUHU21523XXSP,2013-03-28 02:01:00,
2013-03-27 22:11:00,39.4,26.1,30.23,NNW,337,2.7,3.4,59,0.00,,,0.00,WUHU21523XXSP,2013-03-28 02:11:00,
2013-03-27 22:16:00,39.4,26.1,30.23,NNW,337,2.5,3.4,59,0.00,,,0.00,WUHU21523XXSP,2013-03-28 02:16:00,
2013-03-27 22:21:00,39.4,26.1,30.23,NNW,337,1.3,2.7,59,0.00,,,0.00,WUHU21523XXSP,2013-03-28 02:21:00,
2013-03-27 22:26:00,39.4,26.1,30.23,NNW,337,0.7,1.3,59,0.00,,,0.00,WUHU21523XXSP,2013-03-28 02:26:00,
2013-03-27 22:37:00,39.0,25.8,30.23,WNW,292,1.1,2.5,59,0.00,,,0.00,WUHU21523XXSP,2013-03-28 02:37:00,
2013-03-27 22:46:00,39.0,25.8,30.23,NNW,337,1.3,4.3,59,0.00,,,0.00,WUHU21523XXSP,2013-03-28 02:46:00,
2013-03-27 22:56:00,39.0,25.8,30.23,NW,315,4.3,6.7,59,0.00,,,0.00,WUHU21523XXSP,2013-03-28 02:56:00,
2013-03-27 23:01:00,39.0,25.8,30.22,NW,315,3.8,6.7,59,0.00,,,0.00,WUHU21523XXSP,2013-03-28 03:01:00,
2013-03-27 23:06:00,39.0,25.4,30.22,West,277,3.1,5.4,58,0.00,,,0.00,WUHU21523XXSP,2013-03-28 03:06:00,
2013-03-27 23:16:00,38.8,25.2,30.23,NNW,337,1.1,4.5,58,0.00,,,0.00,WUHU21523XXSP,2013-03-28 03:16:00,
2013-03-27 23:26:00,38.8,25.7,30.23,NW,325,2.2,3.6,59,0.00,,,0.00,WUHU21523XXSP,2013-03-28 03:26:00,
2013-03-27 23:36:00,38.5,25.3,30.23,NNE,22,1.8,4.0,59,0.00,,,0.00,WUHU21523XXSP,2013-03-28 03:36:00,
2013-03-27 23:41:00,38.5,25.3,30.23,NNW,333,4.5,7.4,59,0.00,,,0.00,WUHU21523XXSP,2013-03-28 03:41:00,
2013-03-27 23:46:00,38.5,25.3,30.23,NNW,337,2.9,7.4,59,0.00,,,0.00,WUHU21523XXSP,2013-03-28 03:46:00,
2013-03-27 23:56:00,38.8,25.7,30.23,NW,315,1.9,2.9,59,0.00,,,0.00,WUHU21523XXSP,2013-03-28 03:56:00,